• In Belarus
  • List of Countries
  • For 7 days
  • Water Temperature
  • Satellite Maps
  • Weather Map
  • Weather Widgets
  • user-avatar
    Login

    Hourly Weather Gjirokaster

    Today, 16 December, Saturday

    Time Temperature Precipitation Wind Pressure Humidity
    00:00 +3°C° 0.2 mm 6 mps 647 mmHg 94%
    01:00 +3°C° 0.2 mm 6 mps 647 mmHg 94%
    02:00 +3°C° 0.2 mm 6 mps 647 mmHg 94%
    03:00 +4°C° 0.2 mm 6 mps 647 mmHg 94%
    04:00 +4°C° 0.2 mm 6 mps 646 mmHg 94%
    05:00 +4°C° 0.2 mm 6 mps 646 mmHg 94%
    06:00 +3°C° 0.2 mm 6 mps 646 mmHg 94%
    07:00 +3°C° 0.2 mm 6 mps 646 mmHg 94%
    08:00 +4°C° 0.4 mm 6 mps 646 mmHg 93%
    09:00 +4°C° 0.4 mm 6 mps 646 mmHg 91%
    10:00 +4°C° 0.4 mm 6 mps 646 mmHg 90%
    11:00 +5°C° 1.5 mm 5 mps 646 mmHg 90%
    12:00 +5°C° 1.5 mm 5 mps 646 mmHg 91%
    13:00 +3°C° 1.5 mm 5 mps 645 mmHg 91%
    14:00 +4°C° 2.4 mm 4 mps 645 mmHg 92%
    15:00 +4°C° 2.4 mm 3 mps 645 mmHg 94%
    16:00 +3°C° 2.4 mm 3 mps 645 mmHg 95%
    17:00 +4°C° 1.7 mm 2 mps 645 mmHg 96%
    18:00 +4°C° 1.7 mm 2 mps 645 mmHg 96%
    19:00 +4°C° 1.7 mm 2 mps 645 mmHg 96%
    20:00 +4°C° 1.5 mm 2 mps 645 mmHg 96%
    21:00 +4°C° 1.5 mm 1 mps 646 mmHg 96%
    22:00 +4°C° 1.5 mm 1 mps 646 mmHg 95%
    23:00 +4°C° 0.2 mm 1 mps 646 mmHg 95%

    Tomorrow, 17 December, Sunday

    Time Temperature Precipitation Wind Pressure Humidity
    00:00 +4°C° 0.2 mm 1 mps 646 mmHg 95%
    01:00 +4°C° 0.2 mm 1 mps 646 mmHg 94%
    02:00 +3°C° 0.1 mm 2 mps 646 mmHg 94%
    03:00 +2°C° 0.1 mm 2 mps 646 mmHg 93%
    04:00 +2°C° 0.1 mm 2 mps 646 mmHg 93%
    05:00 +2°C° 0.1 mm 2 mps 646 mmHg 92%
    06:00 +1°C° 0.1 mm 2 mps 646 mmHg 90%
    07:00 +1°C° 0.1 mm 2 mps 647 mmHg 89%
    08:00 +2°C° 0 mm 2 mps 647 mmHg 82%
    09:00 +2°C° 0 mm 2 mps 648 mmHg 75%
    10:00 +3°C° 0 mm 2 mps 648 mmHg 68%
    11:00 +3°C° 0.1 mm 2 mps 648 mmHg 66%
    12:00 +3°C° 0.1 mm 3 mps 648 mmHg 64%
    13:00 +3°C° 0.1 mm 3 mps 648 mmHg 62%
    14:00 +2°C° 0.1 mm 3 mps 648 mmHg 67%
    15:00 +1°C° 0.1 mm 3 mps 648 mmHg 72%
    16:00 0°C° 0.1 mm 3 mps 648 mmHg 77%
    17:00 0°C° 0.1 mm 3 mps 649 mmHg 79%
    18:00 -1°C° 0.1 mm 3 mps 649 mmHg 81%
    19:00 -1°C° 0.1 mm 3 mps 649 mmHg 83%
    20:00 -2°C° 0.1 mm 3 mps 650 mmHg 84%
    21:00 -2°C° 0.1 mm 3 mps 650 mmHg 85%
    22:00 -2°C° 0.1 mm 3 mps 650 mmHg 86%
    23:00 -2°C° 0.2 mm 3 mps 651 mmHg 86%

    Day after tomorrow, 18 December, Monday

    Time Temperature Precipitation Wind Pressure Humidity
    00:00 -2°C° 0.2 mm 3 mps 651 mmHg 86%
    01:00 -2°C° 0.2 mm 3 mps 651 mmHg 86%
    02:00 -2°C° 0.2 mm 3 mps 651 mmHg 86%
    03:00 -4°C° 0.2 mm 3 mps 651 mmHg 87%
    04:00 -4°C° 0.2 mm 3 mps 651 mmHg 87%
    05:00 -4°C° 0.1 mm 3 mps 651 mmHg 87%
    06:00 -4°C° 0.1 mm 3 mps 652 mmHg 87%
    07:00 -4°C° 0.1 mm 3 mps 652 mmHg 87%
    08:00 -4°C° 0.1 mm 3 mps 652 mmHg 83%
    09:00 -2°C° 0.1 mm 3 mps 653 mmHg 79%
    10:00 -1°C° 0.1 mm 3 mps 653 mmHg 75%
    11:00 -2°C° 0.2 mm 4 mps 653 mmHg 74%
    12:00 -2°C° 0.2 mm 4 mps 652 mmHg 72%
    13:00 -2°C° 0.2 mm 4 mps 652 mmHg 71%
    14:00 -3°C° 0.1 mm 4 mps 652 mmHg 75%
    15:00 -3°C° 0.1 mm 4 mps 652 mmHg 78%
    16:00 -4°C° 0.1 mm 4 mps 652 mmHg 82%
    17:00 -5°C° 0 mm 4 mps 652 mmHg 84%
    18:00 -5°C° 0 mm 3 mps 652 mmHg 86%
    19:00 -6°C° 0 mm 3 mps 652 mmHg 88%
    20:00 -6°C° 0 mm 3 mps 653 mmHg 88%
    21:00 -6°C° 0 mm 3 mps 653 mmHg 88%
    22:00 -5°C° 0 mm 2 mps 653 mmHg 88%
    23:00 -6°C° 0 mm 2 mps 653 mmHg 87%

    19 December, Tuesday

    Time Temperature Precipitation Wind Pressure Humidity
    00:00 -6°C° 0 mm 2 mps 653 mmHg 85%
    01:00 -6°C° 0 mm 2 mps 653 mmHg 84%
    02:00 -6°C° 0 mm 2 mps 654 mmHg 83%
    03:00 -6°C° 0 mm 2 mps 654 mmHg 81%
    04:00 -6°C° 0 mm 2 mps 654 mmHg 80%
    05:00 -6°C° 0 mm 2 mps 654 mmHg 79%
    06:00 -6°C° 0 mm 2 mps 654 mmHg 78%
    07:00 -6°C° 0 mm 2 mps 655 mmHg 77%
    08:00 -5°C° 0 mm 2 mps 655 mmHg 70%
    09:00 -3°C° 0 mm 2 mps 656 mmHg 64%
    10:00 -2°C° 0 mm 2 mps 657 mmHg 57%
    11:00 -1°C° 0 mm 2 mps 657 mmHg 53%
    12:00 +1°C° 0 mm 1 mps 656 mmHg 50%
    13:00 +2°C° 0 mm 1 mps 656 mmHg 47%
    14:00 +1°C° 0 mm 1 mps 656 mmHg 51%
    15:00 0°C° 0 mm 1 mps 656 mmHg 56%
    16:00 -3°C° 0 mm 2 mps 656 mmHg 60%
    17:00 -3°C° 0 mm 2 mps 656 mmHg 61%
    18:00 -4°C° 0 mm 2 mps 656 mmHg 63%
    19:00 -5°C° 0 mm 2 mps 656 mmHg 64%
    20:00 -5°C° 0 mm 2 mps 657 mmHg 64%
    21:00 -5°C° 0 mm 2 mps 657 mmHg 64%
    22:00 -5°C° 0 mm 2 mps 657 mmHg 64%
    23:00 -6°C° 0 mm 2 mps 657 mmHg 64%

    20 December, Wednesday

    Time Temperature Precipitation Wind Pressure Humidity
    00:00 -6°C° 0 mm 2 mps 657 mmHg 63%
    01:00 -6°C° 0 mm 2 mps 657 mmHg 63%
    02:00 -6°C° 0 mm 2 mps 657 mmHg 63%
    03:00 -7°C° 0 mm 3 mps 657 mmHg 63%
    04:00 -7°C° 0 mm 3 mps 657 mmHg 62%
    05:00 -7°C° 0 mm 3 mps 657 mmHg 62%
    06:00 -7°C° 0 mm 3 mps 657 mmHg 62%
    07:00 -8°C° 0 mm 3 mps 657 mmHg 62%
    08:00 -6°C° 0 mm 3 mps 658 mmHg 57%
    09:00 -5°C° 0 mm 3 mps 658 mmHg 53%
    10:00 -4°C° 0 mm 3 mps 659 mmHg 48%
    11:00 -2°C° 0 mm 2 mps 658 mmHg 46%
    12:00 -2°C° 0 mm 2 mps 658 mmHg 45%
    13:00 -1°C° 0 mm 2 mps 658 mmHg 44%
    14:00 -2°C° 0 mm 2 mps 658 mmHg 48%
    15:00 -3°C° 0 mm 2 mps 658 mmHg 53%
    16:00 -4°C° 0 mm 2 mps 658 mmHg 57%
    17:00 -4°C° 0 mm 2 mps 658 mmHg 60%
    18:00 -5°C° 0 mm 2 mps 658 mmHg 62%
    19:00 -6°C° 0 mm 2 mps 658 mmHg 64%
    20:00 -7°C° 0 mm 3 mps 658 mmHg 65%
    21:00 -7°C° 0 mm 3 mps 658 mmHg 65%
    22:00 -8°C° 0 mm 3 mps 658 mmHg 65%
    23:00 -8°C° 0 mm 3 mps 658 mmHg 65%

    21 December, Thursday

    Time Temperature Precipitation Wind Pressure Humidity
    00:00 -8°C° 0 mm 3 mps 658 mmHg 65%
    01:00 -8°C° 0 mm 3 mps 658 mmHg 65%
    02:00 -7°C° 0 mm 2 mps 658 mmHg 64%
    03:00 -7°C° 0 mm 2 mps 658 mmHg 64%
    04:00 -7°C° 0 mm 2 mps 658 mmHg 64%
    05:00 -7°C° 0 mm 2 mps 658 mmHg 63%
    06:00 -7°C° 0 mm 2 mps 658 mmHg 62%
    07:00 -7°C° 0 mm 2 mps 659 mmHg 62%
    08:00 -5°C° 0 mm 2 mps 659 mmHg 55%
    09:00 -4°C° 0 mm 2 mps 660 mmHg 48%
    10:00 -2°C° 0 mm 2 mps 660 mmHg 41%
    11:00 -1°C° 0 mm 2 mps 660 mmHg 39%
    12:00 +1°C° 0 mm 2 mps 660 mmHg 37%
    13:00 +3°C° 0 mm 1 mps 660 mmHg 34%
    14:00 +1°C° 0 mm 2 mps 659 mmHg 40%
    15:00 -2°C° 0 mm 2 mps 659 mmHg 46%
    16:00 -3°C° 0 mm 2 mps 658 mmHg 52%
    17:00 -3°C° 0 mm 2 mps 658 mmHg 52%
    18:00 -4°C° 0 mm 2 mps 658 mmHg 52%
    19:00 -4°C° 0 mm 2 mps 658 mmHg 51%
    20:00 -4°C° 0 mm 2 mps 658 mmHg 49%
    21:00 -4°C° 0 mm 2 mps 658 mmHg 46%
    22:00 -4°C° 0 mm 2 mps 658 mmHg 43%
    23:00 -4°C° 0 mm 2 mps 658 mmHg 43%
    Show more

    XHprof extension not loaded